Regional Weather Roundup
Issued by NWS

Home | Current Version | Previous Version | Graphics & Text | Print | Product List | Glossary On
Versions: 1 2 3 4 5 6 7 8 9 10 11 12 13 14 15 16 17 18 19 20 21 22 23 24 25 26 27 28 29 30 31 32 33 34 35 36 37 38 39 40 41 42 43 44 45 46 47 48 49 50
000
ASUS45 KCYS 221110
RWRWY

WYOMING REGIONAL WEATHER ROUNDUP
NATIONAL WEATHER SERVICE CHEYENNE WY
500 AM MDT FRI MAY 22 2015

NOTE:  "FAIR" INDICATES FEW OR NO CLOUDS BELOW 12,000 FEET
WITH NO SIGNIFICANT WEATHER AND/OR OBSTRUCTIONS TO VISIBILITY.

WYZ001-221200-
YELLOWSTONE NATIONAL PARK

CITY           SKY/WX    TMP DP  RH WIND       PRES   REMARKS
LK YELLOWSTONE   N/A     35  32  88 CALM      30.06F
W YELLOWSTONE  NOT AVBL

$$
WYZ002>013-054>058-071-098>099-221200-
NORTHERN WYOMING

CITY           SKY/WX    TMP DP  RH WIND       PRES   REMARKS
JACKSON        CLOUDY    43  43 100 CALM      30.00F
CODY           MOCLDY    48  43  81 SW6       29.97S
GREYBULL       FAIR      49  46  90 NW5       29.94S
WORLAND        FAIR      48  45  89 SW3       29.95S
SHERIDAN       FAIR      44  40  85 S5        29.97F
BUFFALO        FAIR      44  42  93 SE14      30.00F
GILLETTE       MOCLDY    47  43  86 SE13      30.02F
HULETT         FAIR      46  39  76 CALM      30.08R
NEWCASTLE      CLOUDY    48  41  76 SE12      30.08S

$$
WYZ014>020-022>026-101>103-221200-
CENTRAL WYOMING

CITY           SKY/WX    TMP DP  RH WIND       PRES   REMARKS
BIG PINEY      CLOUDY    43  40  89 N5        30.02F
PINEDALE       PTSUNNY   39  39 100 W3        30.03S
DUBOIS         CLOUDY    39  37  93 NW5       30.02S
LANDER         FAIR      44  41  89 SW7       29.98R
RIVERTON       MOCLDY    45  43  93 NE8       29.98F
CASPER         MOCLDY    44  42  93 CALM      29.99F
DOUGLAS        CLOUDY    47  44  90 SE20      30.02F

$$
WYZ021-027>030-104>119-221200-
SOUTHERN WYOMING

CITY           SKY/WX    TMP DP  RH WIND       PRES   REMARKS
EVANSTON       MOCLDY    40  37  89 NE6       29.99F
KEMMERER       FAIR      37  36  93 N6        30.02S WCI  33
FORT BRIDGER   SUNNY     41  41 100 NE5       30.02F
ROCK SPRINGS   FAIR      42  37  82 S9        30.00S
DIXON          CLOUDY    46  42  85 NE6       30.02S
RAWLINS        CLOUDY    43  41  93 E7        30.00S
SARATOGA       RAIN      43  41  93 CALM      30.02S
LARAMIE        CLOUDY    41  40  96 SE14      30.01F
CHEYENNE       CLOUDY    43  42  97 SE12      30.03F FOG
TORRINGTON     CLOUDY    49  44  83 SE10      30.04F
PINE BLUFFS    CLOUDY    45  43  93 SE10      30.05F

$$


USA.gov is the U.S. government's official web portal to all federal, state and local government web resources and services.